Weather History for KHFF - November, 2012

Change the Weather History Date:

Tuesday, November 13, 2012

  Actual Average Record
Temperature  
Mean Temperature 53 °F -  
Max Temperature 61 °F 64 °F 73 °F (2007)
Min Temperature 43 °F 40 °F 23 °F (2013)
Degree Days  
Heating Degree Days 12    
Growing Degree Days 3 (Base 50)    
Moisture  
Dew Point 50 °F    
Average Humidity 94    
Maximum Humidity 100    
Minimum Humidity 76    
Precipitation  
Precipitation 0.05 in - - ()
Sea Level Pressure  
Sea Level Pressure 30.27 in    
Wind  
Wind Speed 6 mph (NE)    
Max Wind Speed 18 mph    
Max Gust Speed 30 mph    
Visibility 6 miles    
Events Fog , Rain    
Averages and records for this station are not official NWS values.
T = Trace of Precipitation, MM = Missing Value Source: NWS Daily Summary

Daily Weather History Graph

Daily Weather History Graph

Search for Another Location

Airport or City:

Trip Planner

Search our weather history database for the weather conditions in past years. The results will help you decide how hot, cold, wet, or windy it might be!

Date:

Astronomy

Nov. 13, 2012 Rise Set
Actual Time 6:51 AM EST 5:13 PM EST
Civil Twilight 6:24 AM EST 5:40 PM EST
Nautical Twilight 5:53 AM EST 6:10 PM EST
Astronomical Twilight 5:23 AM EST 6:40 PM EST
Moon 6:26 AM EST (11/13) 5:05 PM EST (11/13)
Length of Visible Light 11h 15m
Length of Day
10h 22m
Waning Crescent, 0% of the Moon is Illuminated
Nov 13
Waning Crescent
Nov 13
New
Nov 20
First Quarter
Nov 28
Full
Dec 6
Last Quarter

Hourly Weather History & Observations

Time (EST) Temp. Windchill Dew Point Humidity Pressure Visibility Wind Dir Wind Speed Gust Speed Precip Events Conditions
12:55 AM 61.7 °F - 59.2 °F 91% 30.18 in 10.0 mi SE 3.5 mph - N/A   Mostly Cloudy
1:55 AM 59.4 °F - 56.7 °F 91% 30.17 in 10.0 mi Calm Calm - N/A   Mostly Cloudy
2:37 AM 59.0 °F - 57.2 °F 94% 30.18 in 2.5 mi South 2.3 mph - N/A   Mostly Cloudy
2:45 AM 57.2 °F - 55.4 °F 94% 30.18 in 3.0 mi SSW 2.3 mph - N/A   Mostly Cloudy
2:55 AM 57.7 °F - 56.3 °F 95% 30.18 in 7.0 mi WSW 2.3 mph - N/A   Mostly Cloudy
3:55 AM 57.6 °F - 56.5 °F 96% 30.17 in 5.0 mi SSE 3.5 mph - N/A   Mostly Cloudy
4:07 AM 57.2 °F - 55.4 °F 94% 30.17 in 2.5 mi SSE 2.3 mph - N/A   Scattered Clouds
4:09 AM 57.2 °F - 55.4 °F 94% 30.17 in 1.8 mi SSE 3.5 mph - N/A   Scattered Clouds
4:10 AM 57.2 °F - 55.4 °F 94% 30.17 in 1.5 mi SSE 3.5 mph - N/A   Scattered Clouds
4:11 AM 57.2 °F - 55.4 °F 94% 30.17 in 1.2 mi SSE 3.5 mph - N/A   Scattered Clouds
4:12 AM 57.2 °F - 55.4 °F 94% 30.17 in 1.0 mi SSE 4.6 mph - N/A   Scattered Clouds
4:24 AM 57.2 °F - 55.4 °F 94% 30.17 in 0.8 mi SSE 3.5 mph - N/A Fog Fog
4:31 AM 57.2 °F - 55.4 °F 94% 30.17 in 1.0 mi SSE 2.3 mph - N/A Fog Fog
4:33 AM 57.2 °F - 57.2 °F 100% 30.17 in 1.2 mi SSE 3.5 mph - N/A   Mostly Cloudy
4:35 AM 57.2 °F - 57.2 °F 100% 30.17 in 1.5 mi South 3.5 mph - N/A   Mostly Cloudy
4:37 AM 57.2 °F - 57.2 °F 100% 30.17 in 2.0 mi SSE 3.5 mph - N/A   Mostly Cloudy
4:39 AM 57.2 °F - 55.4 °F 94% 30.17 in 2.5 mi SSE 2.3 mph - N/A   Mostly Cloudy
4:47 AM 57.2 °F - 57.2 °F 100% 30.18 in 1.8 mi SE 1.2 mph - N/A   Mostly Cloudy
4:48 AM 57.2 °F - 57.2 °F 100% 30.18 in 1.2 mi SSE 1.2 mph - N/A   Mostly Cloudy
4:51 AM 57.2 °F - 55.4 °F 94% 30.18 in 1.0 mi SE 2.3 mph - N/A Fog Fog
4:52 AM 57.2 °F - 55.4 °F 94% 30.18 in 0.8 mi SE 1.2 mph - N/A Fog Fog
4:55 AM 56.8 °F - 56.1 °F 97% 30.18 in 0.5 mi SSE 1.2 mph - N/A Fog Fog
5:07 AM 57.2 °F - 57.2 °F 100% 30.19 in 1.0 mi SE 1.2 mph - N/A Fog Fog
5:09 AM 57.2 °F - 57.2 °F 100% 30.19 in 1.2 mi East 1.2 mph - N/A Fog Fog
5:11 AM 57.2 °F - 57.2 °F 100% 30.19 in 1.5 mi Calm Calm - N/A   Mostly Cloudy
5:12 AM 57.2 °F - 57.2 °F 100% 30.19 in 2.0 mi Variable 1.2 mph - N/A   Mostly Cloudy
5:13 AM 57.2 °F - 57.2 °F 100% 30.19 in 2.5 mi Variable 1.2 mph - N/A   Mostly Cloudy
5:14 AM 57.2 °F - 57.2 °F 100% 30.19 in 3.0 mi SSE 1.2 mph - N/A   Mostly Cloudy
5:17 AM 57.2 °F - 57.2 °F 100% 30.19 in 5.0 mi SSE 1.2 mph - N/A   Mostly Cloudy
5:34 AM 59.0 °F - 57.2 °F 94% 30.19 in 7.0 mi Variable 1.2 mph - N/A Rain Light Rain
5:43 AM 59.0 °F - 57.2 °F 94% 30.19 in 8.0 mi Calm Calm - N/A Rain Light Rain
5:55 AM 59.5 °F - 58.3 °F 96% 30.20 in 8.0 mi NW 9.2 mph 17.3 mph N/A Rain Light Rain Showers
5:57 AM 59.0 °F - 59.0 °F 100% 30.20 in 8.0 mi NNW 9.2 mph 17.3 mph N/A Rain Light Rain Showers
5:58 AM 59.0 °F - 59.0 °F 100% 30.20 in 8.0 mi NNW 10.4 mph 17.3 mph N/A   Mostly Cloudy
6:55 AM 54.7 °F - 50.5 °F 86% 30.24 in 10.0 mi North 13.8 mph - N/A   Overcast
6:57 AM 55.4 °F - 50.0 °F 82% 30.24 in 10.0 mi North 16.1 mph - N/A   Overcast
7:38 AM 51.8 °F - 46.4 °F 82% 30.27 in 10.0 mi North 13.8 mph 20.7 mph N/A   Overcast
7:55 AM 52.2 °F - 45.9 °F 79% 30.27 in 10.0 mi North 15.0 mph 20.7 mph N/A   Overcast
8:55 AM 51.3 °F - 44.2 °F 77% 30.31 in 10.0 mi North 11.5 mph - N/A   Mostly Cloudy
8:57 AM 51.8 °F - 44.6 °F 76% 30.31 in 10.0 mi North 11.5 mph - N/A   Mostly Cloudy
9:40 AM 50.0 °F - 44.6 °F 82% 30.32 in 10.0 mi North 11.5 mph - N/A Rain Light Rain
9:43 AM 50.0 °F - 46.4 °F 87% 30.32 in 10.0 mi North 9.2 mph - N/A Rain Light Rain
9:55 AM 49.6 °F - 46.2 °F 88% 30.32 in 10.0 mi North 12.7 mph - N/A Rain Light Rain
10:27 AM 48.2 °F - 46.4 °F 93% 30.34 in 5.0 mi North 13.8 mph 18.4 mph N/A Rain Light Rain
10:55 AM 47.7 °F - 45.7 °F 93% 30.35 in 2.5 mi NNE 18.4 mph 21.9 mph 0.03 in Rain Light Rain
10:58 AM 48.2 °F - 44.6 °F 87% 30.34 in 3.0 mi NNE 17.3 mph 21.9 mph N/A Rain Light Rain
11:08 AM 48.2 °F - 46.4 °F 93% 30.34 in 6.0 mi North 9.2 mph 29.9 mph N/A Rain Light Rain
11:27 AM 46.4 °F 40.1 °F 44.6 °F 93% 30.34 in 9.0 mi North 15.0 mph 19.6 mph N/A Rain Light Rain
11:53 AM 46.4 °F 41.9 °F 44.6 °F 93% 30.33 in 9.0 mi North 9.2 mph - N/A Rain Light Rain
11:55 AM 46.6 °F - 45.3 °F 95% 30.33 in 10.0 mi North 9.2 mph - 0.00 in Rain Light Rain
12:02 PM 46.4 °F 42.4 °F 46.4 °F 100% 30.33 in 5.0 mi North 8.1 mph - N/A Rain Light Rain
12:03 PM 46.4 °F 41.9 °F 46.4 °F 100% 30.33 in 5.0 mi North 9.2 mph - N/A Rain Light Rain
12:12 PM 46.4 °F 41.9 °F 46.4 °F 100% 30.32 in 4.0 mi North 9.2 mph - N/A Rain Light Rain
12:51 PM 46.4 °F 41.9 °F 46.4 °F 100% 30.32 in 10.0 mi North 9.2 mph - N/A Rain Light Rain
12:55 PM 46.9 °F - 45.5 °F 95% 30.32 in 10.0 mi North 9.2 mph - 0.02 in Rain Light Rain
1:02 PM 46.4 °F 41.1 °F 46.4 °F 100% 30.31 in 10.0 mi North 11.5 mph - N/A   Light Drizzle
1:03 PM 46.4 °F 41.5 °F 46.4 °F 100% 30.31 in 10.0 mi North 10.4 mph - N/A   Overcast
1:13 PM 48.2 °F - 46.4 °F 93% 30.31 in 10.0 mi North 11.5 mph - N/A Rain Light Rain Showers
1:41 PM 48.2 °F - 46.4 °F 93% 30.31 in 7.0 mi North 10.4 mph - N/A Rain Light Rain Showers
1:42 PM 48.2 °F - 46.4 °F 93% 30.31 in 8.0 mi North 10.4 mph - N/A Rain Light Rain Showers
1:55 PM 47.7 °F - 46.2 °F 95% 30.30 in 10.0 mi North 9.2 mph - N/A Rain Light Rain Showers
2:22 PM 48.2 °F - 46.4 °F 93% 30.29 in 10.0 mi North 9.2 mph - N/A   Overcast
2:28 PM 48.2 °F - 46.4 °F 93% 30.29 in 10.0 mi North 13.8 mph 18.4 mph N/A Rain Light Rain Showers
2:51 PM 48.2 °F - 46.4 °F 93% 30.30 in 10.0 mi NNE 10.4 mph - N/A   Mostly Cloudy
2:52 PM 48.2 °F - 46.4 °F 93% 30.30 in 10.0 mi NNE 10.4 mph - N/A   Mostly Cloudy
2:55 PM 47.8 °F - 46.4 °F 95% 30.30 in 10.0 mi North 11.5 mph 16.1 mph 0.00 in   Mostly Cloudy
3:55 PM 48.0 °F - 45.9 °F 92% 30.31 in 10.0 mi North 12.7 mph 18.4 mph N/A   Overcast
4:16 PM 48.2 °F - 46.4 °F 93% 30.32 in 10.0 mi NNE 9.2 mph 18.4 mph N/A   Overcast
4:55 PM 48.2 °F - 46.0 °F 92% 30.32 in 10.0 mi North 11.5 mph - N/A   Overcast
5:55 PM 47.7 °F - 45.9 °F 93% 30.34 in 10.0 mi NNE 9.2 mph 16.1 mph N/A   Overcast
6:11 PM 48.2 °F - 46.4 °F 93% 30.34 in 10.0 mi NNE 10.4 mph - N/A   Overcast
6:31 PM 48.2 °F - 46.4 °F 93% 30.35 in 10.0 mi NNE 10.4 mph 18.4 mph N/A   Overcast
6:47 PM 48.2 °F - 46.4 °F 93% 30.35 in 10.0 mi NNE 10.4 mph 18.4 mph N/A   Overcast
6:55 PM 47.7 °F - 45.9 °F 93% 30.35 in 9.0 mi NNE 13.8 mph 19.6 mph N/A   Overcast
7:12 PM 48.2 °F - 46.4 °F 93% 30.36 in 5.0 mi NNE 10.4 mph - N/A   Overcast
7:33 PM 48.2 °F - 46.4 °F 93% 30.37 in 3.0 mi Variable 6.9 mph - N/A Rain Light Rain
7:55 PM 47.5 °F - 46.4 °F 96% 30.38 in 4.0 mi NNE 8.1 mph 16.1 mph N/A Rain Light Rain Showers
7:57 PM 48.2 °F - 46.4 °F 93% 30.38 in 4.0 mi NNE 9.2 mph 16.1 mph N/A Rain Light Rain Showers
8:37 PM 48.2 °F - 46.4 °F 93% 30.38 in 10.0 mi NNE 6.9 mph - N/A   Mostly Cloudy
8:42 PM 48.2 °F - 46.4 °F 93% 30.38 in 10.0 mi Variable 5.8 mph - N/A   Mostly Cloudy
8:55 PM 47.1 °F - 45.5 °F 94% 30.39 in 10.0 mi NE 5.8 mph - N/A   Mostly Cloudy
9:06 PM 46.4 °F 43.5 °F 44.6 °F 93% 30.39 in 10.0 mi NE 5.8 mph - N/A   Mostly Cloudy
9:55 PM 46.8 °F - 44.6 °F 92% 30.40 in 10.0 mi NE 8.1 mph - N/A   Overcast
10:55 PM 45.9 °F 42.9 °F 43.5 °F 92% 30.40 in 10.0 mi NE 5.8 mph - N/A   Mostly Cloudy
11:55 PM 43.0 °F 41.3 °F 41.5 °F 95% 30.41 in 10.0 mi NNE 3.5 mph - N/A   Clear